[TLELIST] Archives

 

[list_settings.list_name] Current TLEs

December 7th 2010 PST

HST 1 20580U 90037B 10338.06186613 .00000501 00000-0 25419-4 0 6831 2 20580 028.4690 210.7746 0003659 204.3014 155.7401 15.01109306930304 ISS (ZARYA) 1 25544U 98067A 10340.48570566 .00019618 00000-0 14514-3 0 4009 2 25544 051.6477 068.7354 0007586 312.3884 154.2228 15.72925575690579 CXO 1 25867U 99040B 10340.91666667 -.00000345 00000-0 00000+0 0 5432 2 25867 068.0788 044.1404 8415879 275.6870 354.8857 00.37808033 7044 ____________________________________________________________________ These 2-Line ...Continue Reading

[list_settings.list_name] Current TLEs

December 6th 2010 PST

HST 1 20580U 90037B 10338.06186613 .00000501 00000-0 25419-4 0 6831 2 20580 028.4690 210.7746 0003659 204.3014 155.7401 15.01109306930304 ISS (ZARYA) 1 25544U 98067A 10339.46842851 .00019231 00000-0 14264-3 0 3949 2 25544 051.6467 073.9502 0007536 306.7734 155.6691 15.72882989690410 CXO 1 25867U 99040B 10335.62500000 -.00000079 00000-0 00000+0 0 5425 2 25867 068.0475 044.4444 8404069 275.6465 354.5863 00.37808105 7025 ____________________________________________________________________ These 2-Line ...Continue Reading

[list_settings.list_name] Current TLEs

December 5th 2010 PST

HST 1 20580U 90037B 10338.06186613 .00000501 00000-0 25419-4 0 6831 2 20580 028.4690 210.7746 0003659 204.3014 155.7401 15.01109306930304 ISS (ZARYA) 1 25544U 98067A 10338.44999319 .00019237 00000-0 14292-3 0 3901 2 25544 051.6466 079.1709 0007509 302.5807 149.2861 15.72842657690259 CXO 1 25867U 99040B 10335.62500000 -.00000079 00000-0 00000+0 0 5425 2 25867 068.0475 044.4444 8404069 275.6465 354.5863 00.37808105 7025 ____________________________________________________________________ These 2-Line ...Continue Reading

[list_settings.list_name] Current TLEs

December 4th 2010 PST

HST 1 20580U 90037B 10335.13645736 .00000538 00000-0 28202-4 0 6824 2 20580 028.4696 229.8797 0003774 174.9798 185.0771 15.01107642929862 ISS (ZARYA) 1 25544U 98067A 10337.37235484 .00019374 00000-0 14417-3 0 3853 2 25544 051.6459 084.6953 0007468 298.0115 167.9911 15.72800514690088 CXO 1 25867U 99040B 10335.62500000 -.00000079 00000-0 00000+0 0 5425 2 25867 068.0475 044.4444 8404069 275.6465 354.5863 00.37808105 7025 ____________________________________________________________________ These 2-Line ...Continue Reading

[list_settings.list_name] Current TLEs

December 3rd 2010 PST

HST 1 20580U 90037B 10335.13645736 .00000538 00000-0 28202-4 0 6824 2 20580 028.4696 229.8797 0003774 174.9798 185.0771 15.01107642929862 ISS (ZARYA) 1 25544U 98067A 10336.40842332 .00019332 00000-0 14409-3 0 3790 2 25544 051.6467 089.6374 0007542 295.4972 109.0364 15.72762518689936 CXO 1 25867U 99040B 10335.62500000 -.00000079 00000-0 00000+0 0 5425 2 25867 068.0475 044.4444 8404069 275.6465 354.5863 00.37808105 7025 ____________________________________________________________________ These 2-Line ...Continue Reading

[list_settings.list_name] Current TLEs

December 2nd 2010 PST

HST 1 20580U 90037B 10332.01158502 .00000597 00000-0 32716-4 0 6817 2 20580 028.4701 250.2808 0003786 144.5131 215.5652 15.01105609929393 ISS (ZARYA) 1 25544U 98067A 10335.46247226 .00019615 00000-0 14636-3 0 3747 2 25544 051.6462 094.4881 0007598 291.9250 153.1426 15.72725260689784 CXO 1 25867U 99040B 10335.62500000 -.00000079 00000-0 00000+0 0 5425 2 25867 068.0475 044.4444 8404069 275.6465 354.5863 00.37808105 7025 ____________________________________________________________________ These 2-Line ...Continue Reading

[list_settings.list_name] Current TLEs

December 1st 2010 PST

HST 1 20580U 90037B 10332.01158502 .00000597 00000-0 32716-4 0 6817 2 20580 028.4701 250.2808 0003786 144.5131 215.5652 15.01105609929393 ISS (ZARYA) 1 25544U 98067A 10334.45054120 .00021025 00000-0 15683-3 0 3688 2 25544 051.6456 099.6750 0008035 286.3658 185.5544 15.72675875689625 CXO 1 25867U 99040B 10332.95833333 .00000164 00000-0 00000+0 0 5419 2 25867 068.0250 044.5723 8399079 275.6581 351.5044 00.37808567 7019 ____________________________________________________________________ These 2-Line ...Continue Reading

[list_settings.list_name] Current TLEs

November 30th 2010 PST

HST 1 20580U 90037B 10332.01158502 .00000597 00000-0 32716-4 0 6817 2 20580 028.4701 250.2808 0003786 144.5131 215.5652 15.01105609929393 ISS (ZARYA) 1 25544U 98067A 10332.98749002 .00017282 00000-0 13009-3 0 3617 2 25544 051.6467 107.1658 0007390 280.3583 182.8385 15.72623296689390 CXO 1 25867U 99040B 10332.95833333 .00000164 00000-0 00000+0 0 5419 2 25867 068.0250 044.5723 8399079 275.6581 351.5044 00.37808567 7019 ____________________________________________________________________ These 2-Line ...Continue Reading

[list_settings.list_name] Current TLEs

November 29th 2010 PST

HST 1 20580U 90037B 10332.01158502 .00000597 00000-0 32716-4 0 6817 2 20580 028.4701 250.2808 0003786 144.5131 215.5652 15.01105609929393 ISS (ZARYA) 1 25544U 98067A 10332.41459780 .00011198 00000-0 86072-4 0 3561 2 25544 051.6472 110.1002 0007053 268.5694 189.0715 15.72593594689304 CXO 1 25867U 99040B 10332.95833333 .00000164 00000-0 00000+0 0 5419 2 25867 068.0250 044.5723 8399079 275.6581 351.5044 00.37808567 7019 ____________________________________________________________________ These 2-Line ...Continue Reading

[list_settings.list_name] Current TLEs

November 28th 2010 PST

HST 1 20580U 90037B 10329.21914117 .00000675 00000-0 38726-4 0 6800 2 20580 028.4706 268.5106 0003698 115.0572 245.0357 15.01103639928979 ISS (ZARYA) 1 25544U 98067A 10331.39725976 .00010268 00000-0 79387-4 0 3502 2 25544 051.6461 115.3124 0007609 270.7768 183.5287 15.72567591689141 CXO 1 25867U 99040B 10330.33333333 .00000186 00000-0 00000+0 0 5407 2 25867 068.0049 044.7765 8396276 275.6320 354.0870 00.37808999 7003 ____________________________________________________________________ These 2-Line ...Continue Reading
  • This mailing list is a public mailing list - anyone may join or leave, at any time.
  • This mailing list is announce-only.

International Space Station (ISS) / Hubble Space Telescope (HST) / Chandra X-Ray Observatory Orbital Data via EMAIL

Privacy Policy:

Private list